Regional Weather Roundup
Issued by NWS Wakefield, VA

Home | Current Version | Previous Version | Graphics & Text | Print | Product List | Glossary On
Versions: 1 2 3 4 5 6 7 8 9 10 11 12 13 14 15 16 17 18 19 20 21 22 23 24 25 26 27
000
ASUS41 KAKQ 251915
RWRAKQ

REGIONAL WEATHER ROUNDUP
NATIONAL WEATHER SERVICE WAKEFIELD VA
300 PM EDT TUE APR 25 2017

Note: "fair" indicates few or no clouds below 12,000 feet with no
significant weather and/or obstructions to visibility. * = Denotes
station may not report precipitation (e.g., rain,snow,etc.),
thunder or fog.

VAZ042-051-052>054-056-252000-
NORTHERN VIRGINIA

CITY           SKY/WX    TMP DP  RH WIND       PRES   REMARKS
WASH NATIONAL  LGT RAIN  60  58  92 NE21      29.76F FOG
DULLES         FOG       59  56  89 NE14      29.77F VSB 1
FORT BELVOIR   CLOUDY    59  57  94 NE6       29.74F
QUANTICO       CLOUDY    60  59  96 NE18      29.74F FOG
FREDERICKSBRG* CLOUDY    60  60 100 NE9G17    29.71F FOG
STAFFORD*      CLOUDY    58  58 100 NE7G16    29.76F FOG
WARRENTON      CLOUDY    60  56  88 NE13      29.75F FOG
CULPEPER*      DRIZZLE   60  59  97 NE12      29.76S
MANASSAS*      LGT RAIN  59  57  93 NE9G18    29.76F
LEESBURG*      DRIZZLE   59  59 100 NE10G18   29.80F
WINCHESTER     DRIZZLE   54  52  94 N7        29.81S
FRONT ROYAL*   CLOUDY    54  54 100 N6        29.80S
LURAY*         CLOUDY    55  55 100 N14G25    29.79F FOG
$$

VAZ048-049-060>072-079>083-252000-
CENTRAL AND SOUTH CENTRAL VIRGINIA

CITY           SKY/WX    TMP DP  RH WIND       PRES   REMARKS
RICHMOND       CLOUDY    67  64  90 N10       29.66S
CHESTERFIELD*  CLOUDY    66  48  52 N9        29.67F
PETERSBURG*    CLOUDY    70  62  76 NE10      29.64F
HANOVER        CLOUDY    63  61  93 VRB3      29.69S FOG
TAPPAHANNOCK*  CLOUDY    65  65 100 N6        29.68F FOG
QUINTON*       CLOUDY    68  67  94 MISG      29.65F
CHARLOTTSVILLE LGT RAIN  60  56  86 NE14G21   29.74S FOG
GORDONSVILLE*  CLOUDY    59  58  97 NE12G18   29.72F FOG
ORANGE*        CLOUDY    59  55  88 NE6G17    29.74S FOG
LOUISA*        DRIZZLE   63  61  94 N12       29.70S
BUMPASS*       CLOUDY    59  59 100 N6        29.70F
FARMVILLE*     LGT RAIN  61  61 100 N12       29.68R
CREWE*         CLOUDY    65  65 100 N7        29.65S
FORT PICKETT*  CLOUDY    67  63  87 N8G18     29.64S
CHASE CITY*    CLOUDY    62  60  94 CALM      29.65R
CLARKSVILLE*   CLOUDY    63  63 100 CALM      29.63R
SOUTH HILL*    PTSUNNY   67  61  80 S3        29.69S
LAWRENCEVILLE* MOCLDY    72  59  64 S5        29.62F
EMPORIA*       PTSUNNY   73  57  56 CALM      29.62F
$$

VAZ088>098-252000-
SOUTHEAST VIRGINIA

CITY           SKY/WX    TMP DP  RH WIND       PRES   REMARKS
NORFOLK        MOSUNNY   74  61  63 SE10      29.62F
VIRGINIA BEACH CLOUDY    67  59  75 E7        29.62F
NORFOLK NAVAL  NOT AVBL
WEST POINT*    PTSUNNY   69  63  80 NE9       29.66F
SALUDA*        CLOUDY    64  62  94 E9G16     29.67S
NEWPORT NEWS   MOSUNNY   76  64  66 E12       29.62F
LANGLEY AFB    MOSUNNY   71  62  72 E10G18    29.63F
FORT EUSTIS    MOSUNNY   78  60  54 SE5       29.60F
WILLIAMSBURG*  MOSUNNY   75  66  73 CALM      29.64F
HR EXEC AP*    MOCLDY    75  61  60 E7        29.59F
FRANKLIN*      CLOUDY    74  59  58 E3        29.61F
US460-WAKEFLD  MOSUNNY   75  60  59 CALM      29.62F
$$

VAZ020-022-025-037-045-252000-
WEST CENTRAL AND SOUTHWEST VIRGINIA

CITY           SKY/WX    TMP DP  RH WIND       PRES   REMARKS
STAUNTON*      DRIZZLE   54  53  96 NE13      29.79F
WAYNESBORO*    CLOUDY    53  53 100 N9        29.77F
HOT SPRINGS VA DRZL/FOG  41  41 100 NE9G17    29.80S VSB<1/4
LYNCHBURG      CLOUDY    59  56  89 N12G23    29.72S
DANVILLE       RAIN      60  60 100 N13       29.67S FOG
SOUTH BOSTON*  CLOUDY    62  60  96 N13       29.65R
MARTINSVILLE   CLOUDY    60  56  85 N9G16     29.73S
ROANOKE        CLOUDY    58  56  93 NE12      29.76S
BLACKSBURG     CLOUDY    60  54  82 NE5       29.79S
DUBLIN*        DRIZZLE   60  55  82 N3        29.77S
MARION*        CLOUDY    64  58  80 CALM      29.79S
HILLSVILLE*    LGT RAIN  57  57 100 CALM      29.76S
RICHLANDS*     CLOUDY    62  55  77 CALM      29.79S
WISE*          CLOUDY    64  52  63 CALM      29.79F
ABINGDON*      CLOUDY    66  58  75 W7        29.77F
$$

MDZ021>025-VAZ099-100-252000-
SOUTHERN MARYLAND AND THE DELMARVA PENINSULA

CITY           SKY/WX    TMP DP  RH WIND       PRES   REMARKS
PATUXENT RIVER CLOUDY    62  62 100 NE15      29.70F
BAY BRIDGE APT CLOUDY    61  59  94 NE12      29.76F
LEONARDTOWN    CLOUDY    61  59  94 E5        29.71F
DOVER          LGT RAIN  59  59 100 NE16G24   29.77F
GEORGETOWN     LGT RAIN  61  60  97 E14       29.74F FOG
EASTON         LGT RAIN  63  59  88 NE13G20   29.77F
CAMBRIDGE      CLOUDY    63  61  94 E13       29.72F FOG
SALISBURY      CLOUDY    61  61 100 E10       29.71F
OCEAN CITY     LGT RAIN  58  58 100 E5        29.72F VSB 1/2
WALLOPS ISLAND CLOUDY    62  62 100 SE5       29.70S
ACCOMACK*      CLOUDY    67  56  68 E6        29.67F
$$

NCZ012>017-030>032-252000-
NORTH CENTRAL AND EASTERN NORTH CAROLINA

CITY           SKY/WX    TMP DP  RH WIND       PRES   REMARKS
ROANOKE RAPIDS FAIR      73  59  60 CALM      29.60F
RALEIGH        PTSUNNY   68  58  70 W7        29.65R
ELIZABETH CITY CLOUDY    67  66  97 E7        29.62F
AHOSKIE*         N/A     73  60  63 E5        29.61F
EDENTON*       MOSUNNY   73  59  60 CALM      29.62F
CURRITUCK*     DRIZZLE   66  66  99 E5        29.63F
KILL DEVIL HLS CLOUDY    65  65 100 CALM      29.62S
MANTEO         DRIZZLE   66  64  92 SW8       29.64S
CAPE HATTERAS  CLOUDY    70  62  76 VRB3      29.63F
TARBORO*       NOT AVBL
GOLDSBORO      SUNNY     75  59  57 W5        29.59F
WASHINGTON     PTSUNNY   73  60  65 E5        29.60F
GREENVILLE     PTSUNNY   77  59  53 NE6       29.64S
NEW BERN       TSTM      65  63  93 SW3       29.62R
WILMINGTON     MOSUNNY   73  59  61 W10       29.62S
$$

VAZ048-252000-
ELSEWHERE

CITY           SKY/WX    TMP DP  RH WIND       PRES   REMARKS
HARRISBURG PA  RAIN      56  54  93 E9G17     29.87F FOG
BALTIMORE      LGT RAIN  58  58 100 NE17G25   29.78F FOG
ANNAPOLIS      CLOUDY    60  58  92 NE9       29.76F
ANDREWS AFB    CLOUDY    59  57  94 NE15      29.74F FOG
PHILADELPHIA   LGT RAIN  57  54  89 NE18G29   29.87F FOG
HENDERSON NC   CLOUDY    63  56  79 SW6       29.64S
GREENSBORO     LGT RAIN  60  59  96 N10G16    29.69S FOG
ROCKY MOUNT    PTSUNNY   73  59  61 SW5       29.61F
$$

VAZ100-252000-
MARINE

STATION/POSITION TIME  TEMP    WIND        PRES    WAVE   SWELL
                       AIR SEA DIR/SP/G            HT/PER HT/PER
                 (UTC) (F)     (DEG/KT/KT) (MB)    (FT/S) (FT/S)
CAPE MAY NJ      1848   57 55   60/ 12/ 20 1007.6F
LEWES DE         1848   56 54   90/ 20/ 24 1007.1F
15NM E FENWICK I 1850   55 51   80/ 14/ 19 1007.4R  10/11   7/11
OCEAN-CITY-INLET 1842   56 55  100/  9/ 12 1007.0F
WACHAPREAGUE VA  1848   64 60   70/  8/ 11 1004.1F
THOMAS POINT MD  1900   59 56   50/ 17/ 19   N/A
GOOSES REEF MD   1900   59 53   80/ 10/ 12 1007.1    2/ 3
COVE POINT MD    1848   61      70/ 10/ 11 1006.7F
SOLOMONS ISLAND  1848   62 60   40/ 13/ 17   N/A
BISHOPS HEAD MD  1848   63 59   90/  7/ 10 1006.2S
PINEY POINT MD   1848           80/  9/ 11   N/A
POTOMAC MD       1900   62 59   60/ 10/ 12 1004.1    2/ 3
CAMBRIDGE MD     1842   61 61                N/A
LEWISETTA VA     1848   62 60   90/ 10/ 12 1004.8F
RAPPAHANNOCK LGT 1848          120/  9/  9 1005.1F
STINGRAY PT      1850   62     120/ 10/ 12 1004.8F
YORK RVR RNG VA  1848   64     110/ 17/ 19 1003.4S
YORKTOWN VA      1848   69 63  100/ 12/ 16 1003.3F
JAMESTOWN VA     1900   72 67   60/  6/ 10   N/A     0
DOMINION TERM VA 1848   69      40/  4/  9 1003.2F
KIPTOPEKE VA     1848      61  120/  6/  8   N/A
CHES BAY BRIDGE  1848   62 62  120/ 10/ 15 1003.2F
CAPE HENRY VA    1848   62     130/  7/ 11   N/A
WILLOUBY STN VA  1848   66      90/ 17/ 18 1004.0F
S CRANEY ISL VA  1848   72     100/ 14/ 15 1002.6F
CAPE HENRY BUOY  1842      56                N/A     7/11   3/11
1ST LANDING BUOY 1900   62 61              1003.5    3/ 6
CAPE CHARLES BUO 1851      57                N/A     7/10   3/12
64NM E OF VA BCH 1850   61 55  110/ 14/ 16 1003.4F  11/11  11/11
DUCK PIER NC     1848   61 59   60/ 11/ 12 1002.3F
44100 DUCK FRF   1835      56                N/A     9/12   5/12
44056 DUCK FRF   1830      59                N/A     8/10   3/12
OREGON INLET NC  1842   63 64   40/  5/  6 1003.2F
HATTERAS NC      1848   66 67   20/  4/  5 1003.0F
DIAMOND SHLS NC  1850   69 78  150/  2/  4 1003.6R   9/11  10/11
CAPE LOOKOUT NC  1900   70     220/  8/ 10 1003.2R
$$




USA.gov is the U.S. government's official web portal to all federal, state and local government web resources and services.